TimeCDT,TemperatureF,Dew PointF,Humidity,Sea Level PressureIn,VisibilityMPH,Wind Direction,Wind SpeedMPH,Gust SpeedMPH,PrecipitationIn,Events,Conditions,WindDirDegrees,DateUTC
12:40 AM,69.8,66.2,88,29.97,10.0,SSE,16.1,-,N/A,,Partly Cloudy,160,2013-03-31 05:40:00
12:56 AM,70.0,66.9,90,29.96,10.0,SSE,13.8,-,N/A,,Clear,160,2013-03-31 05:56:00
1:56 AM,70.0,66.9,90,29.94,10.0,South,16.1,25.3,N/A,,Clear,170,2013-03-31 06:56:00
2:38 AM,69.8,66.2,88,29.93,10.0,South,15.0,-,N/A,,Partly Cloudy,170,2013-03-31 07:38:00
2:56 AM,70.0,66.9,90,29.93,10.0,South,11.5,21.9,N/A,,Partly Cloudy,170,2013-03-31 07:56:00
3:34 AM,69.8,66.2,88,29.92,10.0,South,15.0,21.9,N/A,,Mostly Cloudy,170,2013-03-31 08:34:00
3:47 AM,69.8,68.0,94,29.91,10.0,South,17.3,21.9,N/A,,Scattered Clouds,170,2013-03-31 08:47:00
3:56 AM,70.0,68.0,93,29.91,10.0,South,15.0,-,N/A,,Scattered Clouds,170,2013-03-31 08:56:00
4:03 AM,69.8,68.0,94,29.92,9.0,South,12.7,20.7,N/A,,Mostly Cloudy,170,2013-03-31 09:03:00
4:43 AM,71.6,68.0,88,29.90,9.0,South,13.8,-,N/A,,Overcast,170,2013-03-31 09:43:00
4:56 AM,71.1,68.0,90,29.90,8.0,South,13.8,-,N/A,,Overcast,170,2013-03-31 09:56:00
5:56 AM,71.1,66.9,87,29.90,10.0,South,15.0,20.7,N/A,,Overcast,190,2013-03-31 10:56:00
6:27 AM,71.6,66.2,83,29.90,10.0,South,11.5,-,N/A,,Overcast,170,2013-03-31 11:27:00
6:56 AM,71.1,66.9,87,29.91,10.0,South,12.7,-,N/A,,Overcast,170,2013-03-31 11:56:00
7:56 AM,72.0,66.9,84,29.92,9.0,South,12.7,-,N/A,,Overcast,180,2013-03-31 12:56:00
8:21 AM,73.4,66.2,78,29.93,10.0,South,9.2,-,N/A,,Overcast,180,2013-03-31 13:21:00
8:56 AM,73.0,66.9,81,29.94,10.0,South,10.4,-,N/A,,Overcast,170,2013-03-31 13:56:00
9:56 AM,75.9,68.0,76,29.95,10.0,South,12.7,-,N/A,,Overcast,170,2013-03-31 14:56:00
10:56 AM,77.0,68.0,74,29.94,10.0,South,15.0,-,N/A,,Overcast,170,2013-03-31 15:56:00
11:56 AM,80.1,68.0,67,29.93,10.0,SSE,18.4,24.2,N/A,,Mostly Cloudy,160,2013-03-31 16:56:00
12:17 PM,78.8,68.0,69,29.93,10.0,SSE,16.1,-,N/A,,Scattered Clouds,160,2013-03-31 17:17:00
12:56 PM,80.1,69.1,69,29.92,10.0,SSE,18.4,24.2,N/A,,Scattered Clouds,150,2013-03-31 17:56:00
1:08 PM,80.6,69.8,70,29.91,9.0,SSE,17.3,24.2,N/A,,Mostly Cloudy,150,2013-03-31 18:08:00
1:56 PM,80.1,69.1,69,29.90,9.0,SSE,19.6,25.3,N/A,,Overcast,150,2013-03-31 18:56:00
2:30 PM,82.4,69.8,66,29.88,10.0,SSE,20.7,26.5,N/A,,Scattered Clouds,150,2013-03-31 19:30:00
2:56 PM,81.0,69.1,67,29.87,10.0,SE,19.6,-,N/A,,Mostly Cloudy,140,2013-03-31 19:56:00
3:37 PM,82.4,69.8,66,29.85,10.0,SE,19.6,24.2,N/A,,Mostly Cloudy,130,2013-03-31 20:37:00
3:56 PM,81.0,69.1,67,29.84,10.0,SSE,20.7,26.5,N/A,,Mostly Cloudy,150,2013-03-31 20:56:00
4:12 PM,82.4,69.8,66,29.83,10.0,SE,21.9,28.8,N/A,,Mostly Cloudy,140,2013-03-31 21:12:00
4:56 PM,79.0,69.1,72,29.79,10.0,SSE,26.5,32.2,N/A,,Scattered Clouds,150,2013-03-31 21:56:00
5:56 PM,78.1,68.0,71,29.82,10.0,SE,17.3,25.3,N/A,,Scattered Clouds,140,2013-03-31 22:56:00
6:56 PM,75.0,68.0,79,29.84,10.0,SE,15.0,23.0,N/A,,Scattered Clouds,130,2013-03-31 23:56:00
7:56 PM,73.0,69.1,87,29.87,10.0,East,10.4,-,N/A,,Mostly Cloudy,100,2013-04-01 00:56:00
8:21 PM,73.4,68.0,83,29.89,9.0,ENE,12.7,-,N/A,,Mostly Cloudy,70,2013-04-01 01:21:00
8:39 PM,73.4,69.8,88,29.91,9.0,ENE,13.8,-,N/A,,Mostly Cloudy,70,2013-04-01 01:39:00
8:45 PM,73.4,69.8,88,29.92,9.0,ENE,15.0,-,N/A,Thunderstorm,Thunderstorm,60,2013-04-01 01:45:00
8:56 PM,73.9,69.1,85,29.93,10.0,ENE,15.0,-,N/A,Thunderstorm,Thunderstorm,60,2013-04-01 01:56:00
9:05 PM,73.4,69.8,88,29.94,10.0,ENE,16.1,-,N/A,Thunderstorm,Thunderstorm,60,2013-04-01 02:05:00
9:27 PM,73.4,69.8,88,29.96,9.0,East,18.4,-,N/A,,Overcast,80,2013-04-01 02:27:00
9:43 PM,73.4,69.8,88,29.93,9.0,East,18.4,28.8,0.00,Rain,Light Rain,90,2013-04-01 02:43:00
9:56 PM,73.0,69.1,87,29.94,9.0,East,17.3,-,0.00,,Mostly Cloudy,100,2013-04-01 02:56:00
10:12 PM,73.4,69.8,88,29.91,9.0,ESE,23.0,28.8,N/A,,Scattered Clouds,110,2013-04-01 03:12:00
10:56 PM,72.0,69.1,91,29.90,9.0,SE,18.4,28.8,N/A,,Clear,130,2013-04-01 03:56:00
11:56 PM,71.1,68.0,90,29.91,9.0,ESE,13.8,-,N/A,,Partly Cloudy,120,2013-04-01 04:56:00